CW0288 Weather Reports


time (UTC)temp
C
wind
direction
speed
KPH
gust
KPH
rain 1hr
cm
rain 24hr
cm
rain mn
cm
humidity
%
barometer
mb
20260502194153 17 233 25.7 43.5 0.00 0.00 0.00 32 1012.2
20260502193653 18 233 20.9 38.6 0.00 0.00 0.00 38 1012.2
20260502193151 18 221 20.9 30.6 0.00 0.00 0.00 33 1012.3
20260502192929 17 223 8.0 30.6 0.00 0.00 0.00 38 1012.6
20260502192151 17 251 20.9 30.6 0.00 0.00 0.00 36 1012.7
20260502191929 18 243 19.3 30.6 0.00 0.00 0.00 31 1012.8
20260502191150 18 230 20.9 32.2 0.00 0.00 0.00 29 1012.9
20260502190923 18 221 24.1 33.8 0.00 0.00 0.00 32 1012.9
20260502190151 17 275 17.7 35.4 0.00 0.00 0.00 33 1013.1
20260502185649 17 197 14.5 35.4 0.00 0.00 0.00 32 1013.1
20260502185425 17 228 20.9 37.0 0.00 0.00 0.00 30 1013.2
20260502184649 18 241 22.5 37.0 0.00 0.00 0.00 37 1013.3
20260502184149 17 223 14.5 30.6 0.00 0.00 0.00 30 1013.3
20260502183650 18 237 17.7 30.6 0.00 0.00 0.00 30 1013.4
20260502183148 17 233 20.9 30.6 0.00 0.00 0.00 36 1013.6
20260502182648 16 235 17.7 30.6 0.00 0.00 0.00 35 1013.7
20260502182149 16 235 17.7 30.6 0.00 0.00 0.00 35 1013.9
20260502181648 16 241 12.9 29.0 0.00 0.00 0.00 37 1013.9
20260502181148 15 245 17.7 38.6 0.00 0.00 0.00 32 1014.1
20260502180648 16 219 16.1 38.6 0.00 0.00 0.00 31 1014.1
20260502180148 17 251 19.3 32.2 0.00 0.00 0.00 33 1014.2
20260502170146 15 230 17.7 25.7 0.00 0.00 0.00 37 1015.2
20260502164145 14 238 11.3 27.4 0.00 0.00 0.00 37 1015.4
20260502163924 14 265 14.5 30.6 0.00 0.00 0.00 32 1015.5
20260502163145 14 261 20.9 30.6 0.00 0.00 0.00 37 1015.5
20260502162646 14 180 11.3 25.7 0.00 0.00 0.00 33 1015.5
20260502162146 14 231 17.7 27.4 0.00 0.00 0.00 37 1015.7
20260502161647 14 240 17.7 27.4 0.00 0.00 0.00 36 1015.8
20260502161146 13 230 16.1 27.4 0.00 0.00 0.00 35 1015.8
20260502160646 13 285 19.3 27.4 0.00 0.00 0.00 33 1015.9
20260502160424 13 223 14.5 25.7 0.00 0.00 0.00 35 1016.0
20260502151639 12 210 14.5 27.4 0.00 0.00 0.00 39 1016.6
20260502151139 12 241 17.7 24.1 0.00 0.00 0.00 41 1016.8
20260502150639 12 234 14.5 24.1 0.00 0.00 0.00 39 1016.7
20260502150140 12 288 16.1 24.1 0.00 0.00 0.00 40 1016.8
20260502130634 5 288 6.4 9.7 0.00 0.00 0.00 67 1017.6
20260502123628 2 264 4.8 6.4 0.00 0.00 0.00 82 1017.7
20260502123128 1 278 4.8 6.4 0.00 0.00 0.00 83 1017.7
20260502122625 0 283 3.2 6.4 0.00 0.00 0.00 81 1017.9
20260502122126 0 276 6.4 6.4 0.00 0.00 0.00 82 1017.9
20260502121647 0 288 4.8 6.4 0.00 0.00 0.00 83 1017.9
20260502120901 0 289 4.8 8.0 0.00 0.00 0.00 81 1017.7
20260502120125 -1 279 6.4 8.0 0.00 0.00 0.00 82 1017.9
20260502115641 -1 288 6.4 6.4 0.00 0.00 0.00 82 1017.9
20260502114623 -1 288 4.8 6.4 0.00 0.00 0.00 83 1017.9
20260502114124 -1 286 4.8 6.4 0.00 0.00 0.00 83 1017.7
20260502113624 -1 296 4.8 4.8 0.00 0.00 0.00 83 1017.6
20260502113400 -1 290 3.2 4.8 0.00 0.00 0.00 84 1017.7
20260502112625 -1 290 3.2 6.4 0.00 0.00 0.00 83 1017.6
20260502112124 -1 289 3.2 8.0 0.00 0.00 0.00 81 1017.6
20260502111625 -1 293 6.4 8.0 0.00 0.00 0.00 78 1017.6
20260502111126 -1 279 6.4 9.7 0.00 0.00 0.00 79 1017.7
20260502110624 -1 299 6.4 11.3 0.00 0.00 0.00 80 1017.7
20260502110125 -2 276 9.7 11.3 0.00 0.00 0.00 80 1017.7
20260502105905 -2 279 9.7 11.3 0.00 0.00 0.00 80 1017.9
20260502105125 -2 275 6.4 11.3 0.00 0.00 0.00 79 1017.7
20260502104903 -2 283 4.8 6.4 0.00 0.00 0.00 76 1017.7
20260502104407 -2 289 4.8 4.8 0.00 0.00 0.00 76 1017.7
20260502103624 -2 290 3.2 4.8 0.00 0.00 0.00 78 1017.7
20260502103124 -1 290 3.2 4.8 0.00 0.00 0.00 78 1017.6
20260502102624 -1 290 3.2 4.8 0.00 0.00 0.00 79 1017.7
20260502102401 -1 295 3.2 6.4 0.00 0.00 0.00 80 1017.6
20260502101624 -1 295 4.8 6.4 0.00 0.00 0.00 79 1017.7
20260502101125 -1 307 4.8 6.4 0.00 0.00 0.00 76 1017.7
20260502100624 -1 313 4.8 6.4 0.00 0.00 0.00 76 1017.6
20260502100125 -1 313 6.4 6.4 0.00 0.00 0.00 82 1017.7
20260502091125 -1 338 3.2 6.4 0.00 0.00 0.00 79 1017.6
20260502090626 -1 338 4.8 6.4 0.00 0.00 0.00 76 1017.6
20260502090127 -1 345 4.8 6.4 0.00 0.00 0.00 79 1017.5
20260502071124 0 313 6.4 8.0 0.00 0.00 0.00 75 1018.1
20260502070624 0 310 6.4 8.0 0.00 0.00 0.00 74 1018.1
20260502070124 0 319 6.4 8.0 0.00 0.00 0.00 75 1018.1
20260502065624 0 313 6.4 8.0 0.00 0.00 0.00 76 1018.1
20260502065356 0 314 6.4 9.7 0.00 0.00 0.00 76 1018.3
20260502064625 0 307 8.0 9.7 0.00 0.00 0.00 74 1018.3
20260502064124 0 309 8.0 9.7 0.00 0.00 0.00 78 1018.3
20260502063624 0 298 8.0 11.3 0.00 0.00 0.00 78 1018.3
20260502063124 0 289 9.7 11.3 0.00 0.00 0.00 76 1018.4
20260502062624 0 300 8.0 9.7 0.00 0.00 0.00 74 1018.3
20260502062356 0 302 8.0 9.7 0.00 0.00 0.00 71 1018.3
20260502061854 0 298 9.7 9.7 0.00 0.00 0.00 71 1018.3
20260502061124 0 290 9.7 9.7 0.00 0.00 0.00 73 1018.3
20260502060625 0 292 8.0 9.7 0.00 0.00 0.00 71 1018.2
20260502060125 0 289 6.4 8.0 0.00 0.00 0.00 70 1018.2
20260502055855 0 300 6.4 8.0 0.00 0.00 0.00 74 1018.2
20260502055125 0 293 8.0 8.0 0.00 0.00 0.00 68 1018.3
20260502054624 0 288 8.0 8.0 0.00 0.00 0.00 68 1018.2
20260502054124 0 275 6.4 8.0 0.00 0.00 0.00 72 1018.2
20260502053624 0 289 3.2 4.8 0.00 0.00 0.00 70 1018.3
20260502053126 0 307 3.2 4.8 0.00 0.00 0.00 70 1018.2
20260502052855 0 323 4.8 4.8 0.00 0.00 0.00 70 1018.3
20260502052124 0 329 4.8 4.8 0.00 0.00 0.00 70 1018.2
20260502051623 0 299 1.6 4.8 0.00 0.00 0.00 73 1018.3
20260502051142 0 299 3.2 4.8 0.00 0.00 0.00 66 1018.2
20260502050125 1 299 4.8 8.0 0.00 0.00 0.00 67 1018.3
20260502045624 1 296 6.4 8.0 0.00 0.00 0.00 66 1018.3
20260502045124 1 305 6.4 6.4 0.00 0.00 0.00 66 1018.3
20260502044624 1 312 6.4 6.4 0.00 0.00 0.00 62 1018.3
20260502044355 1 313 6.4 8.0 0.00 0.00 0.00 64 1018.2
20260502043625 1 313 6.4 8.0 0.00 0.00 0.00 64 1018.3
20260502043124 1 314 6.4 6.4 0.00 0.00 0.00 61 1018.3
20260502042623 2 316 6.4 6.4 0.00 0.00 0.00 55 1018.3
20260502042124 1 314 6.4 8.0 0.00 0.00 0.00 57 1018.3
20260502041623 2 305 6.4 8.0 0.00 0.00 0.00 62 1018.3
20260502041124 2 303 6.4 8.0 0.00 0.00 0.00 61 1018.3
20260502040855 2 303 6.4 8.0 0.00 0.00 0.00 62 1018.3
20260502040123 2 295 6.4 6.4 0.00 0.00 0.00 57 1018.5
20260502035623 2 288 4.8 6.4 0.00 0.00 0.00 59 1018.4
20260502035144 2 281 4.8 6.4 0.00 0.00 0.00 61 1018.5
20260502034124 2 327 4.8 6.4 0.00 0.00 0.00 54 1018.5
20260502033624 2 330 4.8 6.4 0.00 0.00 0.00 53 1018.5
20260502033124 2 331 4.8 6.4 0.00 0.00 0.00 57 1018.4
20260502032623 3 333 4.8 6.4 0.00 0.00 0.00 59 1018.4
20260502032358 3 330 4.8 6.4 0.00 0.00 0.00 55 1018.3
20260502031855 3 333 4.8 4.8 0.00 0.00 0.00 53 1018.4
20260502031123 3 331 4.8 4.8 0.00 0.00 0.00 57 1018.3
20260502030859 3 333 3.2 6.4 0.00 0.00 0.00 54 1018.4
20260502030124 3 338 3.2 6.4 0.00 0.00 0.00 48 1018.4
20260502025624 3 333 3.2 4.8 0.00 0.00 0.00 45 1018.3
20260502025125 4 333 3.2 4.8 0.00 0.00 0.00 44 1018.3
20260502024624 4 340 3.2 4.8 0.00 0.00 0.00 43 1018.3
20260502024124 4 340 3.2 4.8 0.00 0.00 0.00 43 1018.3
20260502023624 4 355 3.2 4.8 0.00 0.00 0.00 44 1018.3
20260502023124 5 355 3.2 4.8 0.00 0.00 0.00 46 1018.3
20260502022625 5 355 3.2 4.8 0.00 0.00 0.00 43 1018.3
20260502022125 5 355 3.2 4.8 0.00 0.00 0.00 43 1018.3
20260502021625 5 355 3.2 4.8 0.00 0.00 0.00 39 1018.2
20260502021125 5 0 3.2 6.4 0.00 0.00 0.00 39 1018.2
20260502020645 5 0 4.8 6.4 0.00 0.00 0.00 41 1018.1
20260502015931 6 0 4.8 6.4 0.00 0.00 0.00 39 1018.1
20260502014624 6 0 4.8 6.4 0.00 0.00 0.00 38 1018.0
20260502014125 6 0 4.8 6.4 0.00 0.00 0.00 39 1018.0
20260502013624 6 357 3.2 6.4 0.00 0.00 0.00 36 1017.9
20260502013124 7 0 4.8 4.8 0.00 0.00 0.00 37 1018.0
20260502012626 7 0 3.2 6.4 0.00 0.00 0.00 38 1017.9
20260502012124 7 358 4.8 8.0 0.00 0.00 0.00 37 1017.9
20260502011624 8 355 4.8 8.0 0.00 0.00 0.00 38 1017.7
20260502011355 8 0 6.4 9.7 0.00 0.00 0.00 38 1017.7
20260502010626 8 334 6.4 11.3 0.00 0.00 0.00 40 1017.9
20260502010124 8 348 8.0 11.3 0.00 0.00 0.00 37 1017.7
20260502005625 9 0 6.4 19.3 0.00 0.00 0.00 32 1017.6
20260502005403 9 6 6.4 20.9 0.00 0.00 0.00 32 1017.6
20260502004624 9 358 11.3 20.9 0.00 0.00 0.00 32 1017.5
20260502004126 10 8 8.0 19.3 0.00 0.00 0.00 30 1017.5
20260502003900 10 18 11.3 19.3 0.00 0.00 0.00 28 1017.4
20260502003124 10 0 12.9 19.3 0.00 0.00 0.00 29 1017.5
20260502002623 10 3 9.7 16.1 0.00 0.00 0.00 24 1017.5
20260502002121 10 0 8.0 16.1 0.00 0.00 0.00 29 1017.5
20260502001623 10 10 8.0 19.3 0.00 0.00 0.00 31 1017.5
20260502001124 10 0 12.9 19.3 0.00 0.00 0.00 27 1017.6
20260502000623 10 28 9.7 17.7 0.00 0.00 0.00 30 1017.5
20260502000122 10 345 9.7 22.5 0.00 0.00 0.00 27 1017.5
20260501235622 10 0 14.5 25.7 0.00 0.00 0.00 29 1017.5
20260501235354 10 343 20.9 25.7 0.00 0.00 0.00 28 1017.6
20260501234618 10 0 11.3 29.0 0.00 0.00 0.00 28 1017.6
20260501234118 11 330 17.7 29.0 0.00 0.00 0.00 27 1017.5
20260501233854 11 333 16.1 24.1 0.00 0.00 0.00 27 1017.6
20260501233356 11 326 19.3 24.1 0.00 0.00 0.00 28 1017.5
20260501232618 11 306 11.3 22.5 0.00 0.00 0.00 23 1017.6
20260501232118 11 0 12.9 25.7 0.00 0.00 0.00 24 1017.4
20260501231615 11 0 16.1 25.7 0.00 0.00 0.00 24 1017.6
20260501231115 11 347 19.3 25.7 0.00 0.00 0.00 27 1017.5
20260501230615 11 324 19.3 25.7 0.00 0.00 0.00 26 1017.6
20260501230115 12 0 16.1 20.9 0.00 0.00 0.00 28 1017.5
20260501225615 12 334 8.0 24.1 0.00 0.00 0.00 28 1017.5
20260501225115 11 329 11.3 32.2 0.00 0.00 0.00 26 1017.6
20260501224851 11 310 16.1 32.2 0.00 0.00 0.00 28 1017.6
20260501224115 12 347 20.9 32.2 0.00 0.00 0.00 28 1017.5
20260501223850 12 316 11.3 27.4 0.00 0.00 0.00 21 1017.5
20260501223114 12 0 11.3 27.4 0.00 0.00 0.00 28 1017.6
20260501222615 13 316 14.5 24.1 0.00 0.00 0.00 29 1017.5
20260501222115 12 0 9.7 20.9 0.00 0.00 0.00 26 1017.6
20260501221615 12 341 9.7 20.9 0.00 0.00 0.00 24 1017.6
20260501221115 12 11 9.7 17.7 0.00 0.00 0.00 26 1017.6
20260501220614 12 34 9.7 17.7 0.00 0.00 0.00 27 1017.7
20260501220116 11 0 11.3 22.5 0.00 0.00 0.00 27 1017.7
20260501215612 11 0 16.1 25.7 0.00 0.00 0.00 28 1017.7
20260501215114 10 343 11.3 25.7 0.00 0.00 0.00 29 1017.9
20260501214612 11 0 9.7 19.3 0.00 0.00 0.00 31 1017.7
20260501214112 11 326 3.2 17.7 0.00 0.00 0.00 28 1017.7
20260501213847 11 0 8.0 27.4 0.00 0.00 0.00 26 1017.9
20260501213112 12 0 17.7 29.0 0.00 0.00 0.00 29 1017.7
20260501212608 12 0 19.3 29.0 0.00 0.00 0.00 24 1017.7
20260501212109 12 327 16.1 33.8 0.00 0.00 0.00 24 1017.9
20260501211608 12 344 24.1 33.8 0.00 0.00 0.00 29 1017.7
20260501211109 12 347 20.9 30.6 0.00 0.00 0.00 29 1017.9
20260501210609 12 319 17.7 25.7 0.00 0.00 0.00 27 1018.0
20260501210107 12 296 8.0 17.7 0.00 0.00 0.00 23 1018.0
20260501205607 11 343 12.9 24.1 0.00 0.00 0.00 35 1018.0
20260501205108 11 345 11.3 24.1 0.00 0.00 0.00 29 1018.1
20260501204608 10 23 12.9 24.1 0.00 0.00 0.00 31 1018.2
20260501204108 10 21 9.7 19.3 0.00 0.00 0.00 30 1018.1
20260501203606 11 3 6.4 9.7 0.00 0.00 0.00 28 1018.1
20260501203106 10 350 3.2 16.1 0.00 0.00 0.00 28 1018.2
20260501202608 11 102 6.4 24.1 0.00 0.00 0.00 23 1018.3
20260501202106 11 0 9.7 24.1 0.00 0.00 0.00 30 1018.3
20260501201606 12 0 17.7 24.1 0.00 0.00 0.00 29 1018.2
20260501201106 12 333 3.2 14.5 0.00 0.00 0.00 30 1018.3
20260501200607 12 82 3.2 16.1 0.00 0.00 0.00 28 1018.3
20260501195602 11 75 4.8 25.7 0.00 0.00 0.00 27 1018.3
20260501195104 11 3 12.9 25.7 0.00 0.00 0.00 33 1018.4